Location: Bonaustraße
(48.4603°N, 11.9280°E)
Time: 19:34:47
(UTC+01:00)

Envisat - Pass Details

Date: 30 January 2021
Orbit: 764 x 766 km, 98.1° (Epoch: 05 March)

Event Time Altitude Azimuth Distance (km) Brightness Sun altitude
Rises 05:46:52 0° 16° (NNE) 3,244 6.4 -19.4°
Reaches altitude 10° 05:49:14 10° 21° (NNE) 2,313 5.7 -19.0°
Maximum altitude 05:54:16 60° 101° (E) 879 3.6 -18.2°
Drops below altitude 10° 05:59:15 10° 181° (S) 2,295 5.5 -17.4°
Sets 06:01:35 0° 185° (S) 3,216 6.3 -17.0°
